Date,TemperatureHighF,TemperatureAvgF,TemperatureLowF,DewpointHighF,DewpointAvgF,DewpointLowF,HumidityHigh,HumidityAvg,HumidityLow,PressureMaxIn,PressureMinIn,WindSpeedMaxMPH,WindSpeedAvgMPH,GustSpeedMaxMPH,PrecipitationSumIn
2013-1-1,50.5,49.8,49.3,50.0,49.2,48.7,98,98,98,29.83,29.80,0,0,0,0.32
2013-1-2,50.2,46.5,42.3,49.6,46.0,41.7,98,98,96,29.94,29.75,4,0,0,0.09
2013-1-3,50.5,41.7,32.5,43.2,38.9,31.1,98,90,63,30.08,29.92,4,0,0,0.00
2013-1-4,51.3,34.6,22.8,34.8,25.6,18.3,98,75,32,30.19,30.09,7,1,0,0.00
2013-1-5,48.9,36.4,23.4,39.3,27.4,22.9,98,73,44,30.21,30.10,5,1,0,0.00
2013-1-6,54.1,42.9,37.2,46.1,39.8,35.1,98,90,62,30.13,29.92,5,1,0,0.00
2013-1-7,53.2,40.2,26.1,37.1,32.6,25.6,98,77,44,30.22,30.02,5,1,0,0.00
2013-1-8,51.4,39.4,28.6,43.2,35.4,28.1,98,87,66,30.27,30.17,4,0,0,0.00
2013-1-9,64.2,54.9,47.1,61.3,52.8,41.3,98,93,77,30.30,30.20,2,0,0,0.00
2013-1-10,64.9,56.4,49.5,61.8,55.1,48.9,98,96,85,30.31,30.18,5,1,0,0.00
2013-1-11,64.4,60.0,55.9,63.8,59.4,55.4,98,98,97,30.19,29.98,5,1,0,0.92
2013-1-12,70.0,61.7,57.2,69.4,61.2,56.6,98,98,98,30.04,29.95,5,0,0,0.00
2013-1-13,68.4,59.7,54.9,67.8,59.1,54.3,98,98,98,30.00,29.91,4,0,0,0.00
2013-1-14,64.2,61.5,59.9,63.6,60.9,59.3,98,98,98,29.98,29.89,5,1,0,1.63
2013-1-15,61.9,59.0,57.0,61.3,58.4,56.5,98,98,98,29.97,29.85,4,0,0,2.13
2013-1-16,62.2,55.1,51.4,61.7,54.6,50.9,98,98,98,29.86,29.78,3,0,0,1.02
2013-1-17,56.8,51.4,40.5,56.3,50.9,39.9,98,98,98,29.90,29.51,5,1,0,2.02
2013-1-18,54.3,39.1,28.2,41.0,33.0,27.2,98,83,37,30.32,29.93,4,1,0,0.00
2013-1-19,52.7,36.6,24.4,40.1,31.4,24.0,98,84,46,30.32,30.08,4,1,0,0.00
2013-1-20,63.1,43.3,28.4,44.7,35.0,27.9,98,77,41,30.09,29.91,8,1,0,0.00
2013-1-21,57.7,41.3,27.5,42.7,31.4,21.9,98,72,38,29.95,29.87,7,2,0,0.00
2013-1-22,43.9,34.4,26.6,22.7,16.7,12.2,64,49,31,30.10,29.93,7,2,0,0.00
2013-1-23,51.4,37.1,25.2,35.3,24.2,14.7,84,60,50,30.17,30.00,6,1,0,0.00
2013-1-24,52.2,44.2,33.1,51.7,30.6,-22.4,99,67,4,30.17,29.90,7,2,0,0.00
2013-1-25,35.2,28.7,25.3,32.2,18.9,8.5,98,70,42,30.27,29.95,6,1,0,0.00
2013-1-26,58.8,41.5,31.8,45.1,31.9,18.1,98,76,23,30.08,29.92,3,0,0,0.02
2013-1-27,47.7,38.0,29.5,38.7,33.8,29.0,98,86,66,30.33,30.08,5,1,0,0.00
2013-1-28,53.4,45.7,39.7,52.9,42.5,35.1,98,89,76,30.29,30.13,2,0,0,0.00
2013-1-29,68.5,51.7,37.4,67.4,51.1,36.9,98,98,94,30.14,29.90,4,0,0,0.00
2013-1-30,63.9,58.3,44.6,63.3,57.7,44.1,98,98,98,29.89,29.38,9,2,0,2.35
2013-1-31,46.6,39.9,32.2,44.1,32.0,26.4,98,75,46,29.92,29.45,9,3,0,0.00
2013-2-1,40.3,35.9,27.7,34.6,19.4,2.1,82,54,20,30.16,29.87,9,3,0,0.00
2013-2-2,45.9,29.1,18.7,36.9,22.7,9.8,98,81,24,30.18,29.95,3,0,0,0.04
2013-2-3,50.5,38.7,28.9,45.7,33.9,28.4,98,85,56,29.96,29.78,8,2,0,0.30
2013-2-4,49.6,37.7,26.1,36.5,30.1,25.6,98,77,44,29.97,29.84,4,1,0,0.00
2013-2-5,60.8,45.1,33.1,53.3,42.6,32.6,98,92,66,29.87,29.78,5,1,0,0.00
2013-2-6,67.1,47.4,31.5,48.7,34.8,23.6,98,71,21,30.01,29.84,5,1,0,0.00
2013-2-7,49.5,43.3,34.9,46.0,39.6,34.4,98,88,59,30.03,29.80,6,1,0,0.26
2013-2-8,56.1,48.0,41.7,55.6,46.3,39.8,98,94,69,29.92,29.75,7,1,0,0.00
2013-2-9,61.0,39.0,24.6,40.9,30.6,18.5,98,80,21,30.13,29.92,6,1,0,0.00
2013-2-10,40.8,39.0,34.2,37.2,34.8,32.5,98,85,72,30.17,30.12,0,0,0,0.00
2013-2-11,40.1,40.1,40.1,35.1,35.1,35.1,82,82,82,30.12,30.12,0,0,0,0.00
2013-2-12,40.1,40.1,40.1,35.1,35.1,35.1,82,82,82,30.12,30.12,0,0,0,0.00
2013-2-13,40.1,40.1,40.1,35.1,35.1,35.1,82,82,82,30.12,30.12,0,0,0,0.00
2013-2-14,40.1,40.1,40.1,35.1,35.1,35.1,82,82,82,30.12,30.12,0,0,0,0.00
2013-2-15,40.1,40.1,40.1,35.1,35.1,35.1,82,82,82,30.12,30.12,0,0,0,0.00
2013-2-16,43.5,37.6,27.3,40.8,29.4,15.7,98,74,43,30.12,29.74,8,3,0,0.00
2013-2-17,44.4,32.2,23.9,19.4,14.7,10.5,68,50,28,30.06,29.88,8,3,0,0.00
2013-2-18,56.7,36.4,19.9,32.6,25.5,19.5,98,72,36,30.18,30.03,6,1,0,0.00
2013-2-19,54.1,42.1,33.8,52.7,36.0,27.3,98,81,44,30.03,29.78,6,1,0,0.35
2013-2-20,58.5,46.2,31.5,58.2,27.9,-37.9,99,62,2,29.96,29.90,5,2,0,0.00
2013-2-21,60.1,41.6,25.9,45.1,24.5,14.9,98,59,20,30.03,29.84,6,1,0,0.00
2013-2-22,45.0,39.8,36.9,44.4,39.3,36.3,98,98,98,30.05,29.91,9,3,0,1.05
2013-2-23,50.2,43.7,39.7,49.6,43.2,39.2,98,98,98,29.95,29.67,3,1,0,0.67
2013-2-24,65.5,48.4,31.6,49.3,36.7,28.1,98,71,28,29.84,29.70,5,1,0,0.00
2013-2-25,50.4,41.6,32.7,41.0,33.3,29.0,98,74,51,29.93,29.78,9,3,0,0.00
2013-2-26,43.7,38.8,34.5,43.2,38.3,34.0,98,98,98,29.82,29.41,8,3,0,1.05
2013-2-27,56.5,45.8,38.3,44.2,40.0,37.4,98,82,55,29.68,29.51,8,3,0,0.00
2013-2-28,48.0,40.6,35.4,44.4,33.8,28.5,98,77,63,29.78,29.62,6,2,0,0.00
2013-3-1,48.0,36.9,28.2,36.5,32.2,27.7,98,84,63,29.79,29.73,6,2,0,0.00
2013-3-2,45.0,37.4,32.0,36.0,32.7,27.7,98,84,62,29.79,29.71,7,2,0,0.00
2013-3-3,43.5,33.2,26.1,27.0,23.2,20.7,88,68,46,29.85,29.76,5,2,0,0.00
2013-3-4,60.4,39.0,22.6,34.7,25.6,19.0,98,64,29,29.98,29.84,6,1,0,0.00
2013-3-5,54.5,44.2,33.1,53.9,43.2,32.6,98,96,72,29.90,29.50,7,1,0,0.83
2013-3-6,45.3,35.4,30.7,40.9,30.7,23.0,98,83,69,29.70,29.62,8,4,0,0.00
2013-3-11,59.2,53.4,48.0,58.6,52.4,40.8,98,97,72,29.98,29.65,6,2,0,1.44
2013-3-12,63.5,51.2,37.9,53.6,43.8,34.9,98,80,41,29.87,29.61,5,2,0,0.11
2013-3-13,53.1,41.9,29.1,37.4,31.3,24.3,98,70,39,30.03,29.87,8,2,0,0.00
2013-3-14,56.1,39.9,25.7,53.1,21.0,-17.1,99,53,5,30.16,30.02,8,2,0,0.00
2013-3-15,72.0,51.3,30.4,47.5,37.9,20.8,98,64,40,30.07,29.81,8,2,0,0.00
2013-3-16,76.5,64.3,53.2,52.5,48.1,45.2,75,57,42,29.82,29.69,8,2,0,0.00
2013-3-17,73.0,63.5,54.1,58.0,51.5,46.0,93,66,52,29.83,29.75,6,2,0,0.00
2013-3-18,59.0,46.8,43.2,53.5,46.0,42.6,98,97,77,29.89,29.67,5,2,0,0.72
2013-3-19,67.5,52.1,40.8,46.2,37.9,25.6,98,66,22,29.90,29.71,6,2,0,0.00
2013-3-20,61.7,46.1,33.6,61.4,23.7,-29.9,99,50,2,29.96,29.70,6,1,0,0.00
2013-3-21,51.4,39.3,27.3,35.9,19.0,-30.1,86,49,3,29.76,29.68,8,3,0,0.00
2013-3-22,52.5,39.7,28.0,35.7,26.4,17.4,93,61,38,29.87,29.75,4,1,0,0.00
2013-3-23,55.4,46.0,40.3,54.8,44.1,33.1,98,93,62,29.86,29.69,4,1,0,0.45
2013-3-24,48.0,46.1,43.9,47.5,45.6,43.4,98,98,98,29.72,29.36,10,3,0,1.62
2013-3-25,43.9,37.4,33.3,43.4,32.3,26.7,98,82,66,29.80,29.41,8,4,0,0.00
2013-3-26,46.6,36.4,30.4,32.3,28.2,25.3,88,72,54,30.04,29.79,9,3,0,0.00
2013-3-27,59.4,42.1,28.6,31.6,27.9,22.2,95,62,25,30.12,30.02,6,2,0,0.00
2013-3-28,66.0,45.7,29.8,35.2,27.9,-19.6,89,57,3,30.14,30.04,7,2,0,0.00
2013-3-29,67.6,46.8,29.1,44.4,33.9,28.6,98,67,27,30.19,30.04,4,1,0,0.00
2013-3-30,72.1,55.8,42.6,57.7,46.4,42.1,98,75,43,30.06,29.86,5,1,0,0.01
2013-3-31,68.4,58.2,53.2,63.8,57.3,52.7,98,97,74,29.91,29.71,6,2,0,0.93
2013-4-1,77.0,60.9,45.9,59.5,50.1,45.0,98,73,37,29.85,29.70,7,2,0,0.01
2013-4-2,73.4,56.2,42.4,73.1,38.1,20.2,99,57,19,30.00,29.85,7,2,0,0.00
2013-4-3,61.0,53.1,45.9,39.7,32.9,26.2,78,48,32,30.06,29.93,7,1,0,0.00
2013-4-4,52.0,42.8,37.4,46.8,40.7,35.8,98,93,55,30.06,29.81,8,2,0,0.27
2013-4-5,71.1,50.4,39.9,55.7,44.3,39.4,98,83,43,29.87,29.75,4,1,0,0.00
2013-4-6,76.6,54.7,34.2,52.4,40.0,33.7,98,66,26,30.06,29.89,6,2,0,0.00
2013-4-7,76.3,57.0,37.4,54.8,47.5,36.9,98,75,43,30.08,29.94,5,1,0,0.00
2013-4-8,80.8,63.8,49.3,63.0,55.5,48.7,98,78,44,30.02,29.93,6,1,0,0.00
2013-4-9,85.6,66.1,48.6,66.0,57.4,48.0,98,77,43,30.07,29.95,5,1,0,0.00
2013-4-10,90.1,68.8,50.0,68.8,59.2,49.5,98,76,41,30.00,29.82,5,1,0,0.00
2013-4-11,81.1,66.4,53.6,71.9,62.2,53.0,98,88,55,29.83,29.53,7,2,0,0.05
2013-4-12,75.7,65.2,56.8,66.3,56.4,42.9,98,77,39,29.74,29.51,8,2,0,0.43
2013-4-13,56.5,48.3,45.0,47.1,46.1,42.5,98,93,62,29.77,29.74,2,1,0,0.00
2013-4-14,47.5,47.5,47.5,46.9,46.9,46.9,98,98,98,29.77,29.77,1,1,0,0.00
2013-4-15,63.9,63.9,63.9,63.3,63.3,63.3,98,98,98,30.00,30.00,0,0,0,0.00
2013-4-16,82.6,67.1,59.0,71.8,63.9,58.4,98,91,61,30.15,30.01,3,1,0,0.00
2013-4-17,88.3,69.8,59.2,73.7,64.7,58.6,98,86,51,30.11,29.96,8,1,0,0.25
2013-4-18,78.4,67.8,60.4,72.5,64.5,59.9,98,90,67,30.03,29.82,7,1,0,0.00
2013-4-19,68.4,60.7,47.3,67.8,60.1,46.8,98,98,98,29.83,29.61,5,2,0,1.07
2013-4-20,66.9,52.8,36.5,46.2,39.2,33.3,98,66,29,30.04,29.81,5,2,0,0.01
2013-4-21,49.6,42.7,36.5,44.4,40.2,36.0,98,91,67,30.19,30.05,2,0,0,0.00
2013-4-22,67.8,56.4,45.9,49.5,45.4,43.5,97,69,44,30.21,30.03,5,2,0,0.00
2013-4-23,72.9,56.6,39.4,56.0,47.0,38.9,98,75,43,30.10,29.94,4,1,0,0.00
2013-4-24,73.8,58.9,48.2,65.4,56.5,47.7,98,93,68,29.99,29.91,5,1,0,1.06
2013-4-25,75.0,59.7,40.8,74.0,41.8,-24.8,99,67,2,30.12,29.95,4,1,0,0.00
2013-4-26,72.3,56.9,38.3,55.9,41.8,34.7,98,61,36,30.27,30.12,5,1,0,0.00
2013-4-27,59.4,54.6,51.6,57.7,53.7,51.1,98,97,75,30.22,30.08,4,0,0,2.13
2013-4-28,57.6,54.3,51.8,57.0,53.7,51.3,98,98,98,30.11,29.89,4,1,0,6.82
2013-4-29,71.8,61.4,55.9,70.1,60.3,55.4,98,96,81,29.91,29.78,3,0,0,0.01
2013-4-30,77.7,61.7,46.4,74.4,59.5,45.9,98,93,72,29.95,29.83,4,0,0,0.00
2013-5-1,67.6,62.2,57.0,67.1,61.6,56.5,98,98,98,30.09,29.96,6,2,0,0.00
2013-5-2,63.9,59.5,57.4,63.3,58.9,56.8,98,98,98,30.11,30.02,6,2,0,0.00
2013-5-3,59.7,56.9,54.9,59.2,56.4,54.3,98,98,98,30.05,29.88,8,3,0,0.04
2013-5-4,56.5,52.0,48.0,55.9,51.5,47.5,98,98,98,29.90,29.71,7,3,0,0.93
2013-5-5,54.7,52.1,50.4,54.1,51.6,49.8,98,98,98,29.77,29.62,8,2,0,1.79
2013-5-6,55.6,49.9,45.1,55.0,49.4,44.6,98,98,98,29.75,29.63,3,0,0,0.07
2013-5-7,71.8,57.7,48.7,69.1,56.9,48.2,98,97,85,29.80,29.71,3,0,0,0.00
2013-5-8,61.0,53.1,50.7,60.4,52.6,50.2,98,98,98,29.90,29.79,0,0,0,0.00
2013-5-9,60.4,54.0,50.7,59.9,53.5,50.2,98,98,98,29.93,29.89,0,0,0,0.00
2013-5-11,76.1,69.5,59.9,75.5,68.9,59.3,98,98,98,29.83,29.74,5,1,0,0.01
2013-5-12,73.6,61.5,50.4,67.8,50.6,38.3,98,73,33,29.92,29.77,5,1,0,0.00
2013-5-13,72.3,56.6,39.2,49.6,41.8,32.4,98,65,23,30.06,29.92,6,1,0,0.00
2013-5-14,80.8,59.7,39.4,66.9,49.9,38.9,98,75,35,30.11,29.96,4,0,0,0.00
2013-5-15,90.5,67.0,57.4,71.1,61.7,56.8,98,88,39,30.00,29.96,4,0,0,0.00
2013-5-16,87.8,87.8,87.8,63.1,63.1,63.1,44,44,44,29.96,29.96,2,2,0,0.00
2013-5-17,80.8,70.9,55.9,77.4,67.5,55.4,98,90,66,29.99,29.91,3,0,0,0.00
2013-5-18,64.9,62.8,62.1,64.4,62.2,61.5,98,98,98,29.96,29.92,0,0,0,0.17
2013-5-19,67.6,66.5,64.9,67.1,65.9,64.4,98,98,98,29.98,29.88,2,0,0,0.04
2013-5-20,82.2,69.3,57.9,81.6,68.7,57.4,98,98,98,29.99,29.89,3,0,0,0.00
2013-5-21,85.1,73.6,63.1,84.1,72.6,62.6,98,97,83,29.93,29.80,3,0,0,0.04
2013-5-22,82.0,70.3,62.6,81.4,69.7,62.0,98,98,98,29.90,29.74,3,0,0,0.02
2013-5-23,68.0,64.9,64.0,67.4,64.3,63.5,98,98,98,29.81,29.79,2,0,0,0.37
2013-5-25,63.3,47.1,42.8,47.8,43.5,42.3,98,90,57,30.12,30.05,0,0,0,0.00
2013-5-26,79.9,63.7,47.3,69.4,55.2,46.5,98,77,47,30.16,30.03,4,1,0,0.00
2013-5-27,83.5,67.8,53.1,75.1,62.6,52.5,98,85,57,30.12,30.00,3,0,0,0.00
2013-5-28,82.4,70.6,59.4,77.8,67.6,58.8,98,91,70,30.09,30.02,3,0,0,0.00
2013-5-29,80.1,69.3,57.7,78.7,67.8,57.2,98,95,75,30.12,30.03,2,0,0,0.00
2013-5-30,79.2,69.8,60.1,77.8,68.9,59.5,98,97,86,30.16,30.03,2,0,0,0.00
2013-5-31,81.5,71.7,64.6,80.0,70.9,64.0,98,97,89,30.12,29.98,3,0,0,0.00
2013-6-1,81.3,71.2,64.2,80.7,70.6,63.6,98,98,98,30.01,29.89,3,0,0,0.00
2013-6-2,75.4,69.6,66.9,74.8,69.0,66.3,98,98,98,29.94,29.77,2,0,0,1.06
2013-6-3,81.0,70.8,64.6,80.3,70.2,64.0,98,98,98,29.83,29.74,3,0,0,0.01
2013-6-4,84.6,71.7,59.4,81.8,70.1,58.8,98,95,79,29.90,29.82,2,0,0,0.00
2013-6-5,81.0,71.9,64.9,80.3,71.3,64.4,98,98,98,29.95,29.80,3,0,0,1.11
2013-6-6,73.0,67.0,64.2,72.4,66.4,63.6,98,98,98,29.87,29.69,1,0,0,0.05
2013-6-8,67.3,67.3,67.3,66.7,66.7,66.7,98,98,98,29.58,29.58,0,0,0,0.00
2013-6-10,67.3,67.3,67.3,66.7,66.7,66.7,98,98,98,29.58,29.58,0,0,0,0.00
2013-6-11,67.3,67.3,67.3,66.7,66.7,66.7,98,98,98,29.58,29.58,0,0,0,0.00
2013-6-12,67.3,67.3,67.3,66.7,66.7,66.7,98,98,98,29.58,29.58,0,0,0,0.00
2013-6-13,67.3,67.3,67.3,66.7,66.7,66.7,98,98,98,29.58,29.58,0,0,0,0.00
2013-6-17,71.4,70.2,67.3,70.8,69.6,66.7,98,98,98,29.85,29.84,0,0,0,0.00
2013-6-18,82.4,73.0,68.2,81.8,72.4,67.6,98,98,98,29.85,29.70,3,0,0,0.09
2013-6-19,78.6,71.4,67.5,78.0,70.8,66.9,98,98,98,29.91,29.76,3,0,0,0.00
2013-6-21,81.3,74.9,63.0,79.8,73.6,62.4,98,96,83,30.15,30.05,3,1,0,0.00
2013-6-22,82.6,71.8,62.4,78.2,69.4,61.8,98,93,72,30.13,30.00,3,0,0,0.00
2013-6-23,83.7,72.3,60.6,83.0,71.7,60.1,98,98,98,30.09,29.99,3,0,0,0.00
2013-6-24,85.5,76.0,68.5,84.8,75.4,68.0,98,98,98,30.12,29.99,4,0,0,0.00
2013-6-25,74.8,68.6,65.5,74.2,68.0,64.9,98,98,98,30.05,30.00,0,0,0,0.00
2013-7-2,81.5,76.5,69.8,80.9,75.9,69.2,98,98,98,29.95,29.88,3,0,0,0.00
2013-7-3,73.8,70.0,66.2,73.2,69.4,65.6,98,98,98,30.05,29.95,4,0,0,1.45
2013-7-4,74.8,68.8,66.0,74.2,68.2,65.4,98,98,98,30.09,29.99,2,0,0,0.82
2013-7-5,77.4,70.7,68.9,76.7,70.1,68.3,98,98,98,30.12,30.03,2,0,0,0.63
2013-7-6,79.2,72.0,67.6,78.5,71.4,67.1,98,98,98,30.09,29.97,3,0,0,1.71
2013-7-7,78.6,72.7,69.6,78.0,72.1,69.0,98,98,98,30.07,29.99,2,0,0,0.01
2013-7-8,73.2,70.6,69.4,72.6,70.0,68.8,98,98,98,30.06,30.03,0,0,0,0.00
2013-7-9,70.9,70.9,70.9,70.3,70.3,70.3,98,98,98,30.00,29.98,0,0,0,0.00
2013-7-10,83.8,75.1,70.3,83.2,74.5,69.7,98,98,98,30.02,29.85,3,0,0,0.01
2013-7-11,78.4,74.1,70.3,77.8,73.5,69.7,98,98,98,29.88,29.76,1,0,0,0.00
2013-7-12,85.5,73.0,66.9,84.8,72.4,66.3,98,98,98,29.85,29.76,4,0,0,1.97
2013-7-13,76.1,70.0,66.2,75.5,69.4,65.6,98,98,98,29.96,29.83,4,1,0,0.00
2013-7-14,74.8,71.3,69.6,74.2,70.7,69.0,98,98,98,30.11,29.95,4,0,0,0.67
2013-7-15,80.1,71.7,68.5,79.4,71.1,68.0,98,98,98,30.20,30.11,4,0,0,0.14
2013-7-22,82.8,78.8,71.2,82.1,78.1,70.6,98,98,98,29.89,29.76,5,1,0,0.00
2013-7-23,83.5,74.9,66.0,82.9,74.2,65.4,98,98,98,29.83,29.70,4,0,0,0.00
2013-7-24,89.4,74.8,68.2,88.8,74.2,67.6,98,98,96,29.75,29.68,2,0,0,0.32
2013-7-25,84.6,73.6,64.4,83.9,73.0,63.8,98,98,98,29.86,29.72,2,0,0,0.00
2013-7-26,69.1,66.8,65.5,68.5,66.2,64.9,98,98,98,29.93,29.88,0,0,0,0.00
2013-8-28,75.4,74.9,74.3,74.8,74.3,73.7,98,98,98,29.88,29.87,0,0,0,0.00
2013-8-29,88.5,76.4,69.8,87.9,75.8,69.2,98,98,98,29.89,29.80,5,0,0,0.00
2013-8-30,74.5,72.9,71.2,73.9,72.3,70.6,98,98,98,29.85,29.85,0,0,0,0.00
2013-9-7,71.6,71.6,71.6,71.0,71.0,71.0,98,98,98,29.87,29.87,0,0,0,0.00
2013-9-8,71.6,71.6,71.6,71.0,71.0,71.0,98,98,98,29.87,29.87,0,0,0,0.00
2013-9-12,86.2,77.4,64.8,85.5,76.8,64.2,98,98,98,29.96,29.79,3,0,0,0.00
2013-9-13,82.9,72.7,63.9,80.4,70.3,63.3,98,93,69,29.82,29.70,4,0,0,0.00
2013-9-14,73.4,60.3,51.6,72.6,59.7,51.1,98,98,97,29.94,29.75,3,0,0,0.00
2013-9-15,78.4,66.8,56.5,77.8,66.2,55.9,98,98,98,30.07,29.95,3,0,0,0.00
2013-9-16,84.0,71.5,62.4,80.7,68.9,61.8,98,92,66,30.03,29.94,2,0,0,0.00
2013-9-17,66.2,66.2,66.2,65.6,65.6,65.6,98,98,98,29.99,29.99,0,0,0,0.00
2013-11-9,66.0,51.0,31.1,65.4,41.8,30.6,98,73,51,30.21,29.94,2,0,0,0.00
2013-11-10,62.1,44.3,40.6,51.1,42.5,40.1,98,94,51,30.10,30.05,1,0,0,0.00
2013-11-11,63.3,47.5,32.9,45.3,39.5,32.4,98,77,43,30.19,30.03,4,1,0,0.00
2013-11-12,63.0,44.6,32.4,51.1,39.4,24.2,98,84,59,30.19,29.95,6,2,0,0.00
2013-11-13,54.0,34.0,19.0,27.8,21.3,11.7,98,68,23,30.38,30.21,4,0,0,0.00
2013-11-14,28.9,25.2,22.3,27.6,24.6,21.8,98,98,90,30.31,30.28,0,0,0,0.00
2013-11-17,59.9,57.7,55.8,59.3,57.1,55.2,98,98,98,30.05,29.80,3,0,0,0.83
2013-11-18,65.1,60.2,57.7,64.5,59.6,57.2,98,98,98,29.81,29.74,2,0,0,0.01
2013-11-19,59.4,47.6,32.4,46.0,40.1,31.9,98,77,52,30.02,29.84,7,1,0,0.00
2013-11-20,53.2,44.4,38.1,42.0,39.1,37.2,98,83,59,30.19,30.01,9,2,0,0.00
2013-11-21,49.3,47.7,46.2,48.7,45.9,39.1,98,94,73,30.27,30.19,5,2,0,0.00
2013-11-22,56.7,51.8,49.3,56.1,51.3,48.7,98,98,98,30.24,30.16,0,0,0,0.02
2013-11-23,57.2,53.5,42.1,56.6,52.8,37.8,98,97,82,30.04,29.95,4,1,0,0.00
2013-11-24,41.5,36.1,29.5,39.4,34.6,29.0,98,94,90,30.26,30.03,3,0,0,0.00
2013-11-25,41.9,37.1,29.1,29.0,20.9,14.7,98,53,41,30.32,30.14,6,3,0,0.00
2013-11-26,49.3,41.0,32.7,48.7,40.1,23.3,98,97,54,30.15,29.46,5,2,0,4.12
2013-11-27,48.7,37.9,26.4,48.2,37.3,25.9,98,98,93,29.96,29.41,9,3,0,0.13
2013-11-28,50.2,31.1,17.1,36.5,26.2,16.6,98,85,49,30.27,29.96,5,1,0,0.00
2013-11-29,60.3,37.0,21.4,43.0,29.6,20.9,98,80,34,30.33,30.26,3,0,0,0.00
2013-11-30,49.5,40.3,32.4,37.6,33.6,31.9,98,79,53,30.41,30.22,5,2,0,0.00
2013-12-1,59.2,44.9,33.4,49.9,41.4,32.9,98,89,63,30.22,29.87,4,1,0,0.00
2013-12-2,53.2,45.3,37.8,52.7,44.8,37.2,98,98,98,29.87,29.65,4,0,0,0.00
2013-12-3,52.0,49.8,47.8,51.4,49.3,47.3,98,98,98,29.76,29.68,3,0,0,0.14
2013-12-4,59.0,55.0,51.6,58.4,54.5,51.1,98,98,98,29.89,29.74,2,0,0,0.05
2013-12-5,67.8,62.5,58.1,67.2,61.9,57.5,98,98,98,29.95,29.85,3,0,0,1.08
2013-12-6,72.0,67.5,65.8,71.4,67.0,65.3,98,98,98,29.92,29.82,8,3,0,0.14
2013-12-7,68.2,61.3,61.0,67.6,60.7,60.4,98,98,98,29.87,29.82,5,2,0,0.00
2013-12-8,61.0,61.0,61.0,60.4,60.4,60.4,98,98,98,29.87,29.87,2,2,0,0.00
2013-12-9,61.0,43.3,37.9,60.4,42.7,37.4,98,98,98,30.08,29.87,3,0,0,1.32
2013-12-10,52.0,46.5,32.7,51.4,45.5,32.2,98,96,77,30.13,29.76,9,2,0,0.31
2013-12-11,54.7,35.2,21.4,43.6,30.3,20.9,98,86,48,30.26,30.12,3,0,0,0.00
2013-12-12,32.4,31.6,30.9,31.9,31.1,30.4,98,98,98,30.17,30.14,2,0,0,0.00
2013-12-13,52.0,40.8,20.8,42.0,29.7,20.4,98,70,37,30.18,30.05,4,1,0,0.00
2013-12-14,47.1,43.5,38.8,46.6,41.7,33.4,98,94,72,30.08,29.67,4,1,0,1.39
2013-12-15,48.6,41.5,30.2,48.0,40.9,29.7,98,98,98,29.95,29.62,6,2,0,0.00
2013-12-16,58.3,38.4,24.4,46.0,32.9,24.0,98,84,45,30.03,29.95,4,1,0,0.00
2013-12-17,61.2,44.0,29.8,50.2,38.8,29.3,98,84,51,30.02,29.87,6,2,0,0.00
2013-12-18,56.5,43.0,32.9,48.7,25.5,-23.9,98,57,3,30.12,29.89,6,2,0,0.00
2013-12-19,63.7,40.2,24.8,43.7,30.1,24.3,98,76,24,30.16,30.04,3,0,0,0.00
2013-12-20,60.6,43.5,30.4,60.1,43.0,29.9,98,98,93,30.09,29.98,2,0,0,0.00
2013-12-21,60.1,54.8,50.7,59.5,54.3,50.2,98,98,98,30.02,29.84,2,0,0,0.09
2013-12-22,65.8,60.8,56.8,65.3,60.2,56.3,98,98,98,29.91,29.78,5,1,0,3.39
2013-12-23,57.0,52.4,39.6,56.5,51.9,39.0,98,98,98,30.00,29.86,5,1,0,0.01
2013-12-24,41.4,34.3,27.5,38.9,32.8,27.0,98,95,71,30.19,30.01,7,2,0,0.00
2013-12-25,41.2,28.5,18.9,32.9,24.8,18.4,98,88,56,30.31,30.17,5,1,0,0.00
2013-12-26,56.1,35.9,22.8,42.5,29.3,22.3,98,81,43,30.21,30.07,5,0,0,0.00
2013-12-27,52.5,35.6,24.8,40.7,30.3,24.3,98,84,48,30.30,30.14,5,1,0,0.00
2013-12-28,45.9,34.3,25.0,45.1,33.7,24.5,98,98,91,30.25,30.00,4,0,0,0.17
2013-12-29,58.5,46.0,37.9,57.9,45.5,37.4,98,98,98,29.99,29.67,7,2,0,0.57
2013-12-30,52.7,42.9,34.5,52.2,42.4,34.0,98,98,98,29.98,29.80,4,1,0,0.00
2013-12-31,48.7,40.2,32.0,42.6,35.8,31.1,98,86,53,30.17,29.97,7,1,0,0.00
2014-1-1,49.5,36.1,27.5,42.4,31.9,18.5,98,88,29,30.19,30.01,3,0,0,0.00
2014-1-2,46.4,41.5,39.4,45.9,41.0,38.9,98,98,98,30.01,29.56,3,0,0,0.34